Tracking 32941 objects as of 15-Jan-2026
HD Live streaming from Space Station
objects crossing your sky now

DMSP 5D-2 F13 DEB

Track DMSP 5D-2 F13 DEB now!
10-day predictions


NORAD ID: 40678
Int'l Code: 1995-015FS
Perigee: 711.1 km
Apogee: 731.6 km
Inclination: 98.6 °
Period: 99.1 minutes
Semi major axis: 7092 km
RCS: Unknown
Launch date: March 24, 1995
Source: United States (US)
Launch site: AIR FORCE WESTERN TEST RANGE (AFWTR)

Note: This is SATELLITE DEBRIS
Your satellite tracking list
Your tracking list is empty




NASA's NSSDC Master Catalog

Two Line Element Set (TLE):
1 40678U 95015FS  26013.35483846  .00006490  00000-0  15636-2 0  9990
2 40678  98.5940  63.5725 0014455 270.7350  89.2189 14.53522200557180
Source of the keplerian elements: AFSPC